Regional Weather Roundup
Issued by NWS Newport/Morehead, NC

Current Version | Previous Version | Graphics & Text | Print | Product List | Glossary On
Versions: 1 2 3 4 5 6 7 8 9 10 11 12 13 14 15 16 17 18 19 20 21 22 23 24 25 26 27 28 29 30 31 32 33 34 35 36 37 38 39 40 41 42 43 44 45 46 47 48 49 50
269 ASUS42 KMHX 061813 RWRMHX WEATHER ROUNDUP FOR EASTERN NORTH CAROLINA NATIONAL WEATHER SERVICE NEWPORT/MOREHEAD CITY NC 100 PM EST SAT FEB 06 2016 NOTE: "FAIR" INDICATES FEW OR NO CLOUDS BELOW 12,000 FEET WITH NO SIGNIFICANT WEATHER AND/OR OBSTRUCTIONS TO VISIBILITY NCZ015>017-031-032-045>047-102-103-061900- NORTH COAST CITY SKY/WX TMP DP RH WIND PRES REMARKS EDENTON CLOUDY 47 29 50 N7 30.39F ELIZABETH CITY MOSUNNY 46 29 51 N9 30.38F KITTY HAWK CLOUDY 44 30 58 N6 30.36F MANTEO CLOUDY 44 31 60 NE10 30.38F $$ NCZ045>047-081-094-103-104-061900- CENTRAL COAST CITY SKY/WX TMP DP RH WIND PRES REMARKS FRISCO CLOUDY 48 33 56 NE12G18 30.34F SWANQUARTER N/A 46 N/A N/A N5 30.33F $$ NCZ095-097-098-100-101-061900- SOUTHERN COAST CITY SKY/WX TMP DP RH WIND PRES REMARKS BEAUFORT CLOUDY 47 30 51 N12 30.35F CEDAR ISLAND N/A 45 N/A N/A N7G14 30.41S JACKSONVILLE MOSUNNY 49 23 36 N8 30.34F PINEY ISLAND CLOUDY N/A N/A N/A N12 30.36F WILMINGTON CLOUDY 50 25 37 N9 30.34F $$ NCZ011>013-027>030-043-044-078>080-089-090>093-098-061900- COASTAL PLAIN CITY SKY/WX TMP DP RH WIND PRES REMARKS AHOSKIE MOSUNNY 43 22 44 N8 30.40F CLINTON PTSUNNY 46 24 41 NE6 30.37F ELIZABETHTOWN MOSUNNY 49 20 32 NE5 30.35F GOLDSBORO MOSUNNY 45 19 36 NE10 30.35F GREENVILLE PTSUNNY 46 27 46 N7 30.39F HAVELOCK CLOUDY 48 27 44 NE10 30.36F KENANSVILLE N/A 46 21 36 NE6 30.37F KINSTON PTSUNNY 46 23 39 N10 30.37F NEW BERN PTSUNNY 49 27 42 N10 30.37F RICHLANDS MOSUNNY 48 23 37 N10 30.36F ROCKY MOUNT SUNNY 45 23 42 N6 30.39F WASHINGTON MOSUNNY 45 27 48 CALM 30.38F WHITEVILLE MOSUNNY 49 22 34 NE7 30.33F $$ AMZ130-135-150-152-154-156-158-170-250-252-270-ANZ085-086-088-633-658-670-061900- MARINE OBSERVATIONS STATION/POSITION TIME TEMP WIND PRES WAVE SWELL AIR SEA DIR/SP/G HT/PER HT/PER (UTC) (F) (DEG/KT/KT) (MB) (FT/S) (FT/S) CHESAPEAKE LIGHT 1800 40 360/ 6/ 7 1029.9 64 E VA BEACH 1750 44 54 10/ 12/ 16 1028.3 5/ 9 3/ 9 DUCK 1700 41 45 360/ 8/ 9 1029.4 2 E DUCK 1711 45 N/A 4/ 8 2/11 OREGON INLET 1700 44 45 350/ 9/ 12 1029.6 13E OREGON INLT 1800 46 N/A 6/13 3/13 HATTERAS CG 1700 44 53 30/ 13/ 18 1028.2 DIAMOND BUOY 1750 49 72 40/ 17/ 21 1027.2 6/11 5/11 CAPE LOOKOUT NOT AVBL BEAUFORT LAB 1700 45 50 20/ 11/ 15 1028.2 30 SE NEW RVR IN 1708 48 64 1026.7 30 SE NEW RVR IN 1725 64 N/A 5/ 5 2/11 27 SE WRIGHTSVLE 1708 49 69 360/ 16/ 23 1027.4 5 SE WRIGHTSVLE 1708 45 54 40/ 17/ 21 1028.4 225 S CAPE HAT 1750 62 69 80/ 8/ 12 N/A 8/10 8/10 41 SE CHARLESTON 1750 53 65 40/ 23/ 27 1024.2 7/ 6 3/ 9 $$

USA.gov is the U.S. government's official web portal to all federal, state and local government web resources and services.